TimeEST,TemperatureF,Dew PointF,Humidity,Sea Level PressureIn,VisibilityMPH,Wind Direction,Wind SpeedMPH,Gust SpeedMPH,PrecipitationIn,Events,Conditions,WindDirDegrees,DateUTC
12:53 AM,30.9,18.0,59,30.05,10.0,West,5.8,-,N/A,,Clear,260,2013-01-04 05:53:00
1:53 AM,30.9,18.0,59,30.05,10.0,West,6.9,-,N/A,,Clear,270,2013-01-04 06:53:00
2:53 AM,30.9,19.0,61,30.06,10.0,West,6.9,-,N/A,,Clear,270,2013-01-04 07:53:00
3:53 AM,30.0,19.0,64,30.06,10.0,West,4.6,-,N/A,,Clear,280,2013-01-04 08:53:00
4:53 AM,30.0,19.0,64,30.06,10.0,West,4.6,-,N/A,,Clear,270,2013-01-04 09:53:00
5:53 AM,28.0,19.0,69,30.07,10.0,SW,5.8,-,N/A,,Clear,230,2013-01-04 10:53:00
8:53 AM,34.0,21.0,59,30.08,10.0,WSW,11.5,18.4,N/A,,Overcast,250,2013-01-04 13:53:00
9:53 AM,34.0,21.9,61,30.09,10.0,West,11.5,-,N/A,,Overcast,260,2013-01-04 14:53:00
10:53 AM,36.0,21.0,55,30.06,10.0,West,13.8,-,N/A,,Overcast,260,2013-01-04 15:53:00
11:53 AM,37.0,19.0,48,30.01,10.0,West,16.1,-,N/A,,Mostly Cloudy,260,2013-01-04 16:53:00
12:53 PM,37.9,19.9,48,29.99,10.0,West,12.7,19.6,N/A,,Mostly Cloudy,270,2013-01-04 17:53:00
1:53 PM,37.9,19.0,47,29.96,10.0,West,18.4,25.3,N/A,,Partly Cloudy,260,2013-01-04 18:53:00
2:53 PM,37.9,19.0,47,29.95,10.0,West,15.0,23.0,N/A,,Clear,260,2013-01-04 19:53:00
3:53 PM,37.0,19.9,50,29.95,10.0,West,17.3,-,N/A,,Clear,260,2013-01-04 20:53:00
4:53 PM,35.1,19.9,54,29.95,10.0,WSW,16.1,21.9,N/A,,Clear,250,2013-01-04 21:53:00
5:53 PM,35.1,19.9,54,29.97,10.0,West,16.1,-,N/A,,Clear,260,2013-01-04 22:53:00
6:53 PM,35.1,19.9,54,29.98,10.0,West,11.5,20.7,N/A,,Clear,270,2013-01-04 23:53:00
7:53 PM,35.1,19.9,54,29.98,10.0,West,11.5,-,N/A,,Clear,270,2013-01-05 00:53:00
8:53 PM,35.1,19.9,54,29.97,10.0,West,12.7,20.7,N/A,,Clear,280,2013-01-05 01:53:00
9:53 PM,35.1,19.9,54,29.98,10.0,West,16.1,23.0,N/A,,Clear,280,2013-01-05 02:53:00
10:53 PM,34.0,19.0,54,30.00,10.0,West,10.4,-,N/A,,Clear,270,2013-01-05 03:53:00
11:53 PM,32.0,19.0,59,30.00,10.0,West,11.5,-,N/A,,Clear,260,2013-01-05 04:53:00